*** The Vicarage Weather Feed ***

NOAA NWS Hourly Roundups by Site

Regional Weather Roundup for Omaha, NE

To Select Another Site Choose from List

Select Site:  

000
ASUS43 KOAX 202310
RWRNE

WEATHER ROUNDUP FOR NEBRASKA
NATIONAL WEATHER SERVICE OMAHA NE
500 PM CST MON JAN 20 2020

NOTES: SATELLITE DATA IS BEING USED TO AUGMENT CLOUD COVER ABOVE
       12000 FEET.
       "FAIR" INDICATES FEW OR NO CLOUDS BELOW 12,000 FEET WITH NO
       SIGNIFICANT WEATHER AND/OR OBSTRUCTIONS TO VISIBILITY.


NEZ001>004-019>022-054>056-210000-
NEBRASKA PANHANDLE

CITY           SKY/WX    TMP DP  RH WIND       PRES   REMARKS
SCOTTSBLUFF    FAIR      46  18  32 E12       30.27F
ALLIANCE       FAIR      41  19  41 S9        30.27F
CHADRON        FAIR      39  25  57 S6        30.26F WCI  35
GORDON         FAIR      40  24  53 S6        30.29S
KIMBALL        FAIR      46  11  24 SE12      30.28S
SIDNEY         FAIR      44  12  27 SE9       30.29F
$$

NEZ057>060-069>072-079>082-210000-
SOUTHWEST NEBRASKA

CITY           SKY/WX    TMP DP  RH WIND       PRES   REMARKS
NORTH PLATTE   FAIR      25  15  66 SE12      30.42S WCI  14
IMPERIAL       FAIR      27  15  61 SE12      30.37F WCI  17
LEXINGTON      FAIR      20  13  72 SE8       30.48F WCI  11
MCCOOK         FAIR      25  16  68 SE12      30.45F WCI  14
OGALLALA       FAIR      37  21  52 SE8       30.36F WCI  30
$$

NEZ005>010-023>029-035>040-094-210000-
NORTH CENTRAL NEBRASKA

CITY           SKY/WX    TMP DP  RH WIND       PRES   REMARKS
VALENTINE      FAIR      26  13  57 S10       30.39F WCI  16
AINSWORTH      FAIR      20  10  65 S9        30.43S WCI   9
BROKEN BOW     FAIR      20   7  57 SE9       30.46F WCI   9
O`NEILL        FAIR      12   2  64 S5        30.52S WCI   4
ORD            FAIR      15   4  61 SE5       30.52R WCI   8
THEDFORD       FAIR      27  18  69 SE8       30.40F WCI  18
$$

NEZ041-046>049-061>064-073>077-083>087-210000-
SOUTH CENTRAL NEBRASKA

CITY           SKY/WX    TMP DP  RH WIND       PRES   REMARKS
GRAND ISLAND   FAIR      12   3  67 E6        30.56R WCI   3
AURORA         FAIR      12   4  70 E5        30.57R WCI   5
HASTINGS       FAIR      14   3  61 NE6       30.55S WCI   5
HEBRON         FAIR      15   5  65 NE5       30.60R WCI   7
HOLDREGE       FAIR      19  13  76 E6        30.50F WCI  11
KEARNEY        FAIR      15   7  70 E5        30.53S WCI   8
YORK           FAIR       9   1  72 NE3       30.59S
$$

NEZ011>018-030>034-042>045-210000-
NORTHEAST NEBRASKA

CITY           SKY/WX    TMP DP  RH WIND       PRES   REMARKS
NORFOLK        FAIR       8  -1  66 E3        30.59S
ALBION         FAIR       9   1  69 E3        30.56F
BLAIR          FAIR       7   1  74 CALM      30.63S
COLUMBUS       FAIR       8   0  69 E5        30.63S WCI   0
FREMONT        FAIR       8   2  76 CALM      30.65S
TEKAMAH        FAIR       5  -2  72 N5        30.67S WCI  -4
WAYNE          FAIR       5  -2  72 CALM      30.62S
$$

NEZ050>053-065>068-078-088>093-210000-
SOUTHEAST NEBRASKA

CITY           SKY/WX    TMP DP  RH WIND       PRES   REMARKS
LINCOLN        FAIR      10   1  67 NE7       30.65S WCI  -1
OMAHA EPPLEY   FAIR       8   0  69 E5        30.67S WCI   0
BEATRICE       FAIR      12   3  68 NE7       30.62S WCI   1
FALLS CITY     FAIR       9   2  73 NE9       30.66R WCI  -4
NEBRASKA CITY  FAIR       8   2  77 NE5       30.65R WCI  -1
PLATTSMOUTH    FAIR       7   1  76 E6        30.65S WCI  -3
$$

NEZ044-045-051>053-067-210000-
OMAHA AREA

CITY           SKY/WX    TMP DP  RH WIND       PRES   REMARKS
OMAHA EPPLEY   FAIR       8   0  69 E5        30.67S WCI   0
BLAIR          FAIR       7   1  74 CALM      30.63S
FREMONT        FAIR       8   2  76 CALM      30.65S
MILLARD        FAIR      12   0  59 CALM      30.66S
OFFUTT AFB     CLEAR      9   0  66 NE7       30.67S WCI  -3
PLATTSMOUTH    FAIR       7   1  76 E6        30.65S WCI  -3
WAHOO          FAIR       8   2  75 N3        30.65R
$$


 

View Past Reports for Omaha, NE.

Products Courtesy of NOAA-NWS
NWS Information Parsing Script by Ken True at Saratoga Weather - Script by SE Lincoln Weather.

This data is offered only as a general guide to local weather conditions. It should not be relied upon in lieu of officially disseminated weather information for determining possible risk to persons or property. This site, including all information contained therein, is made available as is without warranties of any kind, either express or implied. The Vicarage Weather Feed© includes links to other sites for user convenience only. The content of any linked third-party site is not controlled by The Vicarage Weather Feed©. Access to any third-party website through The Vicarage Weather Feed©, regardless of whether or not the third-party site is a linked site, is entirely at the users own risk. Externally sourced content or material is excluded from The Vicarage Weather Feed© copyright and is the copyright and property of the respective provider. Skywarn® and the Skywarn® logo are registered trademarks of the National Oceanic and Atmospheric Administration, used with permission.